DW4394 Weather Reports


Display with metric or nautical units.
time (UTC)temp
F
wind
direction
speed
MPH
gust
MPH
rain 1hr
in
rain 24hr
in
rain mn
in
humidity
%
barometer
mb
20260503033103 76 17 0.0 1.0 0.00 0.00 0.00 7 1007.7
20260503031600 78 17 0.0 1.0 0.00 0.00 0.00 8 1007.6
20260503030100 78 17 0.0 1.0 0.00 0.00 0.00 8 1007.5
20260503030013 78 17 0.0 1.0 0.00 0.00 0.00 7 1007.5
20260503024606 79 15 0.0 3.0 0.00 0.00 0.00 7 1007.3
20260503023101 80 10 1.0 3.0 0.00 0.00 0.00 7 1007.2
20260503021600 80 355 0.0 3.0 0.00 0.00 0.00 7 1007.3
20260503020104 81 293 2.0 4.0 0.00 0.00 0.00 6 1007.2
20260503020003 81 15 2.0 4.0 0.00 0.00 0.00 6 1007.3
20260503014624 82 350 1.0 5.0 0.00 0.00 0.00 6 1007.3
20260503013101 83 329 1.0 3.0 0.00 0.00 0.00 6 1007.5
20260503011500 83 333 2.0 6.0 0.00 0.00 0.00 6 1007.6
20260503010100 83 15 1.0 4.0 0.00 0.00 0.00 6 1007.7
20260503010003 83 334 1.0 4.0 0.00 0.00 0.00 6 1007.7
20260503004500 83 19 3.0 6.0 0.00 0.00 0.00 6 1007.7
20260503003100 83 27 1.0 3.0 0.00 0.00 0.00 6 1007.9
20260503003000 83 309 1.0 3.0 0.00 0.00 0.00 6 1007.9
20260503001602 83 341 3.0 6.0 0.00 0.00 0.00 6 1008.0
20260503000100 84 355 2.0 6.0 0.00 0.00 0.00 6 1008.1
20260503000002 84 27 2.0 6.0 0.00 0.00 0.00 5 1008.1
20260502234600 86 334 3.0 5.0 0.00 0.00 0.00 5 1008.1
20260502233108 84 244 1.0 5.0 0.00 0.00 0.00 6 1008.2
20260502231607 85 138 2.0 7.0 0.00 0.00 0.00 6 1008.3
20260502230100 85 132 4.0 9.0 0.00 0.00 0.00 5 1008.4
20260502224600 86 355 3.0 8.0 0.00 0.00 0.00 5 1008.7
20260502223100 86 244 1.0 11.0 0.00 0.00 0.00 6 1008.9
20260502221601 84 318 5.0 9.0 0.00 0.00 0.00 6 1009.3
20260502220105 85 65 2.0 10.0 0.00 0.00 0.00 6 1009.6
20260502214559 85 355 4.0 10.0 0.00 0.00 0.00 6 1009.9
20260502213059 84 349 3.0 11.0 0.00 0.00 0.00 6 1010.2
20260502211601 87 141 3.0 9.0 0.00 0.00 0.00 5 1010.5
20260502210107 85 65 5.0 10.0 0.00 0.00 0.00 6 1010.7
20260502204601 85 288 5.0 11.0 0.00 0.00 0.00 6 1010.7
20260502203100 84 346 7.0 13.0 0.00 0.00 0.00 7 1011.0
20260502201604 84 355 1.0 6.0 0.00 0.00 0.00 7 1011.1
20260502200114 83 35 4.0 11.0 0.00 0.00 0.00 8 1011.6
20260502194618 84 286 6.0 14.0 0.00 0.00 0.00 7 1011.9
20260502193103 84 328 4.0 10.0 0.00 0.00 0.00 8 1012.0
20260502191601 82 5 1.0 9.0 0.00 0.00 0.00 9 1012.3
20260502190108 82 106 4.0 11.0 0.00 0.00 0.00 8 1012.5
20260502184604 82 53 3.0 9.0 0.00 0.00 0.00 9 1012.9
20260502183108 81 9 4.0 11.0 0.00 0.00 0.00 10 1013.1
20260502181559 80 342 4.0 10.0 0.00 0.00 0.00 10 1013.4
20260502180125 80 294 3.0 8.0 0.00 0.00 0.00 10 1013.5
20260502163101 74 314 2.0 6.0 0.00 0.00 0.00 13 1013.9
20260502161602 74 5 1.0 5.0 0.00 0.00 0.00 14 1013.9
20260502151609 70 360 2.0 5.0 0.00 0.00 0.00 14 1013.6
20260502130104 58 96 1.0 3.0 0.00 0.00 0.00 18 1012.6
20260502123105 59 344 0.0 1.0 0.00 0.00 0.00 17 1012.2
20260502121609 59 74 1.0 3.0 0.00 0.00 0.00 16 1012.2
20260502120104 59 343 0.0 2.0 0.00 0.00 0.00 17 1012.0
20260502114558 59 112 1.0 2.0 0.00 0.00 0.00 16 1012.0
20260502113059 59 97 0.0 3.0 0.00 0.00 0.00 16 1012.0
20260502111602 59 98 0.0 2.0 0.00 0.00 0.00 16 1011.9
20260502110001 60 98 0.0 3.0 0.00 0.00 0.00 16 1011.9
20260502104558 60 101 0.0 2.0 0.00 0.00 0.00 15 1011.9
20260502103106 61 60 0.0 2.0 0.00 0.00 0.00 16 1011.9
20260502101621 62 59 1.0 2.0 0.00 0.00 0.00 15 1011.8
20260502100116 63 182 1.0 4.0 0.00 0.00 0.00 15 1011.8
20260502080107 65 103 0.0 2.0 0.00 0.00 0.00 13 1012.1
20260502071502 68 219 0.0 2.0 0.00 0.00 0.00 13 1012.0
20260502070002 70 80 0.0 2.0 0.00 0.00 0.00 11 1011.7
20260502064501 71 5 0.0 2.0 0.00 0.00 0.00 11 1011.6
20260502063002 72 52 0.0 3.0 0.00 0.00 0.00 11 1011.4
20260502061501 72 28 1.0 4.0 0.00 0.00 0.00 11 1011.2
20260502060001 72 329 1.0 4.0 0.00 0.00 0.00 11 1011.0
20260502054500 72 40 0.0 3.0 0.00 0.00 0.00 12 1011.0
20260502053003 73 34 2.0 6.0 0.00 0.00 0.00 12 1010.9
20260502051501 73 30 0.0 4.0 0.00 0.00 0.00 11 1010.7
20260502050001 73 355 2.0 4.0 0.00 0.00 0.00 11 1010.6
20260502044502 73 9 0.0 1.0 0.00 0.00 0.00 11 1010.4
20260502043002 73 105 0.0 2.0 0.00 0.00 0.00 11 1010.2
20260502041502 74 108 0.0 2.0 0.00 0.00 0.00 11 1010.0
20260502040010 75 108 0.0 3.0 0.00 0.00 0.00 11 1009.8
20260502034501 75 32 1.0 4.0 0.00 0.00 0.00 10 1009.6